[Date Prev][Date Next][Thread Prev][Thread Next] - [Date Index][Thread Index][Author Index]

2 Line ISS Keps 9-2



ISS
1 25544U 98067A   05245.16192481  .00021471  00000-0  16231-3 0  2699
2 25544 051.6422 226.8221 0001267 019.0531 066.1716 15.72376516387794
----
Via the sarex mailing list at AMSAT.ORG courtesy of AMSAT-NA.
To unsubscribe, send "unsubscribe sarex" to Majordomo@amsat.org



AMSAT Top AMSAT Home